BEESAT-7

Last updated on Tue Aug 06 2024 00:03:34 GMT+0000 (Coordinated Universal Time)

1 48084U 21022AN 24218.20157814 .04279259 24389-5 28871-2 0 9993 2 48084 97.4313 130.1344 0011459 182.3599 177.7636 16.16658257185486
UTC large
Height (km)
Speed (km/s)
/
Latitude / Longitude
Inclination (degrees)
Orbital Period (minutes)
Azimuth
Elevation
Range (km)
Doppler Factor

Next 0 passes for location: London (51.5072 / 0.1276)

Sorry there are no passes over London.